Time[GMT],significant_wave_height[m](0m),dominant_wave_period[s](0m)
2020-03-31 17:00, 2.44,8.0
2020-03-31 18:00, 2.45,8.0
2020-03-31 19:00, 2.48,8.0
2020-03-31 20:00, 2.71,10.7
2020-03-31 21:00, 2.14,8.0
2020-03-31 22:00, 2.34,10.7
2020-03-31 23:00, 2.18,6.4
2020-04-01 00:00, 2.19,10.7
2020-04-01 01:00, 1.50,5.3
2020-04-01 02:00, 1.93,8.0
2020-04-01 03:00, 2.71,10.7
2020-04-01 04:00, 1.81,6.4
2020-04-01 05:00, 2.31,8.0
2020-04-01 06:00, 2.15,8.0
2020-04-01 07:00, 2.05,6.4
2020-04-01 08:00, 2.17,6.4
2020-04-01 09:00, 1.59,6.4
2020-04-01 10:00, 1.92,6.4
2020-04-01 11:00, 1.61,6.4
2020-04-01 12:00, 1.64,8.0
2020-04-01 13:00, 1.33,5.3
2020-04-01 14:00, 1.46,6.4
2020-04-01 15:00, 1.34,5.3
2020-04-01 16:00, 1.51,5.3
2020-04-01 17:00, 1.51,5.3
2020-04-01 18:00, 1.84,6.4
2020-04-01 19:00, 1.81,6.4
2020-04-01 20:00, 1.88,6.4
2020-04-01 21:00,,
2020-04-01 22:00, 1.86,5.3
2020-04-01 23:00, 2.09,6.4
2020-04-02 00:00, 2.15,6.4
2020-04-02 01:00, 2.27,6.4
2020-04-02 02:00,,
2020-04-02 03:00, 2.59,6.4
2020-04-02 04:00, 2.87,8.0
2020-04-02 05:00, 2.99,6.4
2020-04-02 06:00, 3.41,8.0
2020-04-02 07:00, 3.39,8.0
2020-04-02 08:00, 2.88,8.0
2020-04-02 09:00, 3.13,6.4
2020-04-02 10:00, 3.20,8.0
2020-04-02 11:00, 2.86,8.0
2020-04-02 12:00, 2.80,8.0
2020-04-02 13:00, 3.06,8.0
2020-04-02 14:00, 3.07,6.4
2020-04-02 15:00, 3.24,8.0
2020-04-02 16:00, 3.17,8.0
2020-04-02 17:00, 3.21,8.0
2020-04-02 18:00, 3.64,8.0
2020-04-02 19:00, 3.55,8.0
2020-04-02 20:00, 4.41,8.0
2020-04-02 21:00, 4.34,8.0
2020-04-02 22:00, 4.40,8.0
2020-04-02 23:00, 4.52,8.0
2020-04-03 00:00, 4.71,8.0
2020-04-03 01:00, 4.97,8.0
2020-04-03 02:00, 5.88,10.7
2020-04-03 03:00, 5.18,10.7
2020-04-03 04:00, 5.43,10.7
2020-04-03 05:00, 5.65,10.7
2020-04-03 06:00, 5.84,10.7
2020-04-03 07:00, 5.35,10.7
2020-04-03 08:00, 6.52,10.7
2020-04-03 09:00, 5.52,10.7
2020-04-03 10:00, 5.98,10.7
2020-04-03 11:00, 5.15,10.7
2020-04-03 12:00, 6.34,10.7
2020-04-03 13:00, 5.25,10.7
2020-04-03 15:00, 5.26,10.7
2020-04-03 16:00,,
2020-04-03 17:00, 5.28,10.7
2020-04-03 18:00, 6.44,10.7
2020-04-03 19:00, 5.25,10.7
2020-04-03 20:00, 5.72,10.7
2020-04-03 21:00, 5.51,10.7
2020-04-03 22:00, 6.63,10.7
2020-04-03 23:00, 6.15,10.7
2020-04-04 00:00, 5.68,8.0
2020-04-04 01:00, 5.54,10.7
2020-04-04 02:00, 6.10,10.7
2020-04-04 03:00, 5.83,10.7
2020-04-04 04:00, 5.37,10.7
2020-04-04 05:00, 4.93,8.0
2020-04-04 06:00, 4.79,10.7
2020-04-04 07:00,,
2020-04-04 08:00, 5.28,8.0
2020-04-04 09:00, 4.86,10.7
2020-04-04 10:00, 4.97,10.7
2020-04-04 11:00, 4.61,10.7
2020-04-04 12:00, 4.26,8.0
2020-04-04 13:00, 3.74,8.0
2020-04-04 14:00, 3.55,8.0
2020-04-04 15:00, 3.74,10.7
2020-04-04 16:00,,
2020-04-04 17:00, 3.65,10.7
2020-04-04 18:00, 2.95,8.0
2020-04-04 19:00, 3.27,8.0
2020-04-04 20:00,,
2020-04-04 21:00, 3.11,8.0
2020-04-04 22:00,,
2020-04-04 23:00, 3.80,10.7
2020-04-05 00:00,,
2020-04-05 01:00,,
2020-04-05 02:00, 2.13,6.4
2020-04-05 03:00,,
2020-04-05 04:00, 1.63,6.4
2020-04-05 05:00, 1.41,6.4
2020-04-05 06:00, 1.36,5.3
2020-04-05 07:00, 1.40,6.4
2020-04-05 08:00, 1.20,6.4
2020-04-05 09:00, 2.43,10.7
2020-04-05 10:00, 2.48,10.7
2020-04-05 11:00, 2.75,10.7
2020-04-05 12:00, 3.23,10.7
2020-04-05 13:00, 3.35,10.7
2020-04-05 14:00, 2.69,10.7
2020-04-05 15:00,,
2020-04-05 16:00,,
2020-04-05 17:00,,
2020-04-05 18:00,,
2020-04-05 19:00, 1.58,10.7
2020-04-05 20:00,,
2020-04-05 21:00, 1.71,10.7
2020-04-05 22:00, 1.64,10.7
2020-04-05 23:00, 1.93,10.7
2020-04-06 00:00, 2.04,10.7
2020-04-06 01:00, 2.41,10.7
2020-04-06 02:00, 2.09,10.7
2020-04-06 03:00, 2.59,10.7
2020-04-06 04:00,,
2020-04-06 05:00, 2.12,10.7
2020-04-06 06:00,,
2020-04-06 07:00, 1.11,4.6
2020-04-06 08:00, 1.08,4.6
2020-04-06 09:00, 1.10,4.6
2020-04-06 10:00, 1.09,5.3
2020-04-06 11:00, 1.09,5.3
2020-04-06 12:00, 2.42,10.7
2020-04-06 13:00, 2.28,10.7
2020-04-06 14:00, 2.23,10.7
2020-04-06 15:00,,
2020-04-06 16:00, 1.77,10.7
2020-04-06 17:00,,
2020-04-06 18:00,,
2020-04-06 19:00, 0.82,5.3
2020-04-06 20:00, 0.68,3.6
2020-04-06 21:00, 0.88,3.2
2020-04-06 22:00, 0.80,4.6
2020-04-06 23:00, 0.95,4.6
2020-04-07 00:00, 1.59,10.7
2020-04-07 01:00, 1.63,10.7
2020-04-07 02:00, 0.83,4.6
2020-04-07 03:00, 1.64,10.7
2020-04-07 04:00, 1.72,10.7
2020-04-07 05:00,,
2020-04-07 06:00,,
2020-04-07 07:00,,
2020-04-07 08:00,,
2020-04-07 09:00,,
2020-04-07 10:00,,
2020-04-07 11:00,,
2020-04-07 12:00,,
2020-04-07 13:00, 1.41,10.7
2020-04-07 14:00, 1.32,10.7
2020-04-07 15:00, 1.13,8.0
2020-04-07 16:00,,
2020-04-07 17:00, 0.49,4.0
2020-04-07 18:00, 0.53,2.9
2020-04-07 19:00, 0.55,4.0
2020-04-07 20:00, 0.48,4.0
2020-04-07 21:00, 0.47,4.0
2020-04-07 22:00, 0.46,4.0
2020-04-07 23:00, 0.78,10.7
2020-04-08 00:00, 1.02,10.7
2020-04-08 01:00,,
2020-04-08 02:00, 0.57,2.9
2020-04-08 03:00, 0.68,3.2
2020-04-08 04:00, 0.68,3.6
2020-04-08 05:00, 0.64,4.0
2020-04-08 06:00, 0.67,4.0
2020-04-08 07:00, 0.75,4.0
2020-04-08 08:00, 0.61,4.0
2020-04-08 09:00, 0.69,4.0
2020-04-08 10:00, 0.62,4.0
2020-04-08 11:00, 0.68,4.0
2020-04-08 12:00, 0.65,4.6
2020-04-08 13:00, 0.60,4.0
2020-04-08 14:00, 0.66,4.6
2020-04-08 15:00, 1.27,10.7
2020-04-08 16:00, 0.76,4.6
2020-04-08 17:00, 0.75,2.7
2020-04-08 18:00, 0.77,2.9
2020-04-08 19:00, 0.78,3.2
2020-04-08 20:00, 0.79,3.6
2020-04-08 21:00, 0.77,4.0
2020-04-08 22:00, 0.73,3.6
2020-04-08 23:00, 0.60,4.6
2020-04-09 00:00, 0.55,4.0
2020-04-09 01:00, 0.48,4.6
2020-04-09 02:00, 0.52,4.0
2020-04-09 03:00, 0.87,10.7
2020-04-09 04:00, 0.91,10.7
2020-04-09 05:00, 0.83,10.7
2020-04-09 06:00, 0.75,10.7
2020-04-09 07:00, 0.38,4.6
2020-04-09 08:00, 0.33,4.0
2020-04-09 09:00, 0.35,5.3
2020-04-09 10:00, 0.53,10.7
2020-04-09 11:00, 0.45,2.1
2020-04-09 12:00, 0.55,2.5
2020-04-09 13:00, 0.67,2.9
2020-04-09 14:00, 1.08,8.0
2020-04-09 15:00, 0.90,3.6
2020-04-09 16:00, 1.11,4.6
2020-04-09 17:00, 1.62,4.6
2020-04-09 18:00, 1.47,5.3
2020-04-09 19:00, 1.75,6.4
2020-04-09 20:00, 2.05,6.4
2020-04-09 21:00, 2.33,6.4
2020-04-09 22:00, 2.69,8.0
2020-04-09 23:00, 2.89,8.0
2020-04-10 00:00, 3.09,8.0
2020-04-10 01:00, 3.82,6.4
2020-04-10 02:00, 4.61,8.0
2020-04-10 03:00, 4.68,8.0
2020-04-10 04:00, 3.97,8.0
2020-04-10 05:00, 4.15,8.0
2020-04-10 06:00, 4.14,8.0
2020-04-10 07:00, 4.87,8.0
2020-04-10 08:00, 4.90,8.0
2020-04-10 09:00, 4.98,8.0
2020-04-10 10:00, 4.54,8.0
2020-04-10 11:00, 4.22,8.0
2020-04-10 12:00, 3.21,8.0
2020-04-10 13:00, 4.41,8.0
2020-04-10 14:00, 4.45,8.0
2020-04-10 15:00, 4.28,10.7
2020-04-10 16:00, 3.66,8.0
2020-04-10 17:00, 3.45,8.0
2020-04-10 18:00, 3.86,10.7
2020-04-10 19:00, 3.62,8.0
2020-04-10 20:00, 3.20,8.0
2020-04-10 21:00, 2.50,8.0
2020-04-10 22:00, 2.58,8.0
2020-04-10 23:00, 2.28,8.0
2020-04-11 00:00, 2.16,8.0
2020-04-11 01:00, 2.55,5.3
2020-04-11 02:00, 2.61,8.0
2020-04-11 03:00, 2.65,8.0
2020-04-11 04:00, 2.52,6.4
2020-04-11 05:00, 2.41,6.4
2020-04-11 06:00,,
2020-04-11 07:00, 3.05,6.4
2020-04-11 08:00, 3.06,8.0
2020-04-11 09:00, 2.70,8.0
2020-04-11 10:00, 2.65,8.0
2020-04-11 11:00, 2.59,6.4
2020-04-11 12:00, 2.57,8.0
2020-04-11 13:00, 2.65,8.0
2020-04-11 14:00, 2.39,8.0
2020-04-11 15:00, 2.68,6.4
2020-04-11 16:00, 2.67,6.4
2020-04-11 17:00, 2.27,8.0
2020-04-11 18:00, 2.14,6.4
2020-04-11 19:00, 2.14,6.4
2020-04-11 20:00, 1.93,6.4
2020-04-11 21:00, 1.55,6.4
2020-04-11 22:00, 1.52,5.3
2020-04-11 23:00, 1.47,6.4
2020-04-12 00:00, 0.74,3.2
2020-04-12 01:00, 1.71,8.0
2020-04-12 02:00, 1.55,5.3
2020-04-12 03:00, 1.70,5.3
2020-04-12 04:00, 1.74,5.3
2020-04-12 05:00, 1.77,5.3
2020-04-12 06:00, 1.57,5.3
2020-04-12 07:00, 1.29,5.3
2020-04-12 08:00, 1.35,5.3
2020-04-12 09:00, 1.06,5.3
2020-04-12 10:00, 1.11,5.3
2020-04-12 11:00, 0.88,4.6
2020-04-12 12:00, 0.77,4.6
2020-04-12 13:00, 0.76,4.6
2020-04-12 14:00, 0.80,4.6
2020-04-12 15:00, 0.98,8.0
2020-04-12 16:00, 1.03,8.0
2020-04-12 17:00, 0.99,8.0
2020-04-12 18:00, 0.75,6.4
2020-04-12 19:00, 0.68,3.6
2020-04-12 20:00, 0.75,3.2
2020-04-12 21:00, 0.83,3.6
2020-04-12 22:00, 0.95,8.0
2020-04-12 23:00, 1.08,8.0
2020-04-13 00:00, 0.92,4.6
2020-04-13 01:00, 0.94,4.6
2020-04-13 02:00, 0.90,4.6
2020-04-13 03:00, 1.19,4.6
2020-04-13 04:00, 1.09,5.3
2020-04-13 05:00, 1.13,4.6
2020-04-13 06:00, 1.06,5.3
2020-04-13 07:00, 0.93,5.3
2020-04-13 08:00, 1.23,4.6
2020-04-13 09:00, 1.10,4.6
2020-04-13 10:00, 1.11,4.6
2020-04-13 11:00, 1.45,4.6
2020-04-13 12:00,,
2020-04-13 13:00, 1.73,6.4
2020-04-13 14:00, 1.98,6.4
2020-04-13 15:00, 1.86,6.4
2020-04-13 16:00, 2.04,6.4
2020-04-13 17:00, 2.38,6.4
2020-04-13 18:00, 2.58,6.4
2020-04-13 19:00, 2.92,6.4
2020-04-13 20:00, 3.35,8.0
2020-04-13 21:00, 3.28,8.0
2020-04-13 22:00, 3.41,8.0
2020-04-13 23:00, 4.13,8.0
2020-04-14 00:00, 3.90,8.0
2020-04-14 01:00, 4.74,8.0
2020-04-14 02:00, 4.42,10.7
2020-04-14 03:00, 4.60,10.7
2020-04-14 04:00, 4.72,10.7
2020-04-14 05:00, 5.11,10.7
2020-04-14 06:00, 4.03,8.0
2020-04-14 07:00, 4.94,10.7
2020-04-14 08:00, 4.54,10.7
2020-04-14 09:00, 4.89,10.7
2020-04-14 10:00, 4.26,10.7
2020-04-14 11:00, 4.49,10.7
2020-04-14 12:00,,
2020-04-14 13:00, 3.93,10.7
2020-04-14 14:00, 4.72,10.7
2020-04-14 15:00, 4.50,10.7
2020-04-14 16:00, 3.58,10.7
2020-04-14 17:00, 2.96,10.7
2020-04-14 18:00, 2.77,10.7
2020-04-14 19:00, 2.79,10.7
2020-04-14 20:00,,
2020-04-14 21:00, 2.40,10.7
2020-04-14 22:00, 2.63,10.7
2020-04-14 23:00, 3.03,10.7
2020-04-15 00:00, 2.47,10.7
2020-04-15 01:00, 2.58,10.7
2020-04-15 02:00, 2.55,10.7
2020-04-15 03:00, 2.84,10.7
2020-04-15 04:00, 3.09,10.7
2020-04-15 05:00, 2.12,10.7
2020-04-15 06:00, 2.10,10.7
2020-04-15 07:00, 2.60,10.7
2020-04-15 08:00, 2.31,10.7
2020-04-15 09:00, 2.42,10.7
2020-04-15 10:00, 2.03,10.7
2020-04-15 11:00, 1.97,10.7
2020-04-15 12:00, 1.25,4.0
2020-04-15 13:00, 2.40,10.7
2020-04-15 14:00, 2.02,10.7
2020-04-15 15:00,,
2020-04-15 16:00, 2.42,10.7
2020-04-15 17:00, 1.95,10.7
2020-04-15 18:00, 1.85,10.7
2020-04-15 19:00, 1.40,10.7
2020-04-15 20:00, 1.40,10.7
2020-04-15 21:00, 1.47,10.7
2020-04-15 22:00, 1.33,10.7
2020-04-15 23:00, 1.49,10.7
2020-04-16 00:00, 1.25,8.0
2020-04-16 01:00, 1.48,8.0
2020-04-16 02:00, 1.33,8.0
2020-04-16 03:00, 1.32,8.0
2020-04-16 04:00, 1.65,8.0
2020-04-16 05:00, 1.65,8.0
2020-04-16 06:00, 1.59,8.0
2020-04-16 07:00, 1.49,8.0
2020-04-16 08:00, 1.36,8.0
2020-04-16 09:00, 1.18,8.0
2020-04-16 10:00, 1.21,8.0
2020-04-16 11:00, 1.17,8.0
2020-04-16 12:00, 0.86,4.6
2020-04-16 13:00, 1.35,8.0
2020-04-16 14:00, 0.83,3.6
2020-04-16 15:00, 1.17,8.0
2020-04-16 16:00, 1.14,8.0
2020-04-16 17:00, 1.20,8.0
2020-04-16 18:00, 1.12,8.0
2020-04-16 19:00, 1.19,8.0
2020-04-16 20:00, 1.08,8.0
2020-04-16 21:00, 0.66,4.6
2020-04-16 22:00, 0.75,4.6
2020-04-16 23:00, 1.09,8.0
2020-04-17 00:00, 1.21,8.0
2020-04-17 01:00, 1.16,8.0
2020-04-17 02:00, 1.14,8.0
2020-04-17 03:00, 1.12,8.0
2020-04-17 04:00, 1.12,8.0
2020-04-17 05:00, 1.20,8.0
2020-04-17 06:00, 0.92,4.0
2020-04-17 07:00, 1.16,4.6
2020-04-17 08:00, 1.44,4.6
2020-04-17 09:00, 1.42,4.6
2020-04-17 10:00, 1.60,5.3
2020-04-17 11:00, 1.63,5.3
2020-04-17 12:00, 1.63,5.3
2020-04-17 13:00, 1.54,5.3
2020-04-17 14:00, 1.52,5.3
2020-04-17 15:00, 1.48,6.4
2020-04-17 16:00, 1.49,5.3
2020-04-17 17:00, 1.40,5.3
2020-04-17 18:00, 1.34,5.3
2020-04-17 19:00, 1.49,5.3
2020-04-17 20:00, 1.83,5.3
2020-04-17 21:00, 1.71,6.4
2020-04-17 22:00, 1.77,6.4
2020-04-17 23:00, 1.68,6.4
2020-04-18 00:00, 1.57,6.4
2020-04-18 01:00, 1.49,6.4
2020-04-18 02:00, 1.39,6.4
2020-04-18 03:00, 1.24,5.3
2020-04-18 04:00, 1.13,6.4
2020-04-18 05:00, 1.04,6.4
2020-04-18 06:00, 1.06,5.3
2020-04-18 07:00, 0.98,4.6
2020-04-18 08:00, 1.25,8.0
2020-04-18 09:00, 1.44,8.0
2020-04-18 10:00, 1.26,6.4
2020-04-18 11:00, 1.19,6.4
2020-04-18 12:00, 1.28,6.4
2020-04-18 13:00, 1.43,6.4
2020-04-18 14:00, 1.46,6.4
2020-04-18 15:00, 1.11,6.4
2020-04-18 16:00, 1.14,4.6
2020-04-18 17:00, 1.15,4.0
2020-04-18 18:00, 1.19,4.6
2020-04-18 19:00, 1.20,4.6
2020-04-18 20:00, 1.32,5.3
2020-04-18 21:00, 1.43,5.3
2020-04-18 22:00, 1.68,5.3
2020-04-18 23:00, 1.70,5.3
2020-04-19 00:00, 1.93,6.4
2020-04-19 01:00, 2.24,6.4
2020-04-19 02:00, 2.08,6.4
2020-04-19 03:00, 1.99,6.4
2020-04-19 04:00, 1.73,8.0
2020-04-19 05:00, 2.02,8.0
2020-04-19 06:00, 1.04,4.6
2020-04-19 07:00, 2.48,10.7
2020-04-19 08:00, 2.73,10.7
2020-04-19 09:00, 2.38,10.7
2020-04-19 10:00,,
2020-04-19 11:00, 1.57,8.0
2020-04-19 12:00, 0.85,4.0
2020-04-19 13:00, 0.57,3.2
2020-04-19 14:00, 1.59,8.0
2020-04-19 15:00, 1.63,10.7
2020-04-19 16:00,,
2020-04-19 17:00, 1.69,10.7
2020-04-19 18:00, 2.22,10.7
2020-04-19 19:00,,
2020-04-19 20:00,,
2020-04-19 21:00,,
2020-04-19 22:00,,
2020-04-19 23:00,,
2020-04-20 00:00, 1.26,4.6
2020-04-20 01:00, 1.50,5.3
2020-04-20 02:00, 1.40,5.3
2020-04-20 03:00, 2.50,10.7
2020-04-20 04:00, 1.96,6.4
2020-04-20 05:00, 2.31,6.4
2020-04-20 06:00, 2.68,10.7
2020-04-20 07:00, 2.14,8.0
2020-04-20 08:00, 2.16,8.0
2020-04-20 09:00, 2.25,8.0
2020-04-20 10:00, 2.17,8.0
2020-04-20 11:00, 2.18,8.0
2020-04-20 12:00, 1.90,8.0
2020-04-20 13:00, 1.01,3.6
2020-04-20 14:00, 1.66,6.4
2020-04-20 15:00, 0.56,2.9
2020-04-20 16:00, 1.47,6.4
2020-04-20 17:00, 1.36,5.3
2020-04-20 18:00, 1.26,4.6
2020-04-20 19:00, 1.26,8.0
2020-04-20 20:00, 0.93,4.6
2020-04-20 21:00, 0.99,6.4
2020-04-20 22:00, 0.74,4.6
2020-04-20 23:00, 1.21,10.7
2020-04-21 00:00,,
2020-04-21 01:00, 0.93,8.0
2020-04-21 02:00, 0.54,2.9
2020-04-21 03:00, 0.57,2.7
2020-04-21 04:00, 1.02,8.0
2020-04-21 05:00, 0.92,3.6
2020-04-21 06:00, 0.99,4.6
2020-04-21 07:00, 1.00,4.6
2020-04-21 08:00, 1.09,4.6
2020-04-21 09:00, 1.15,4.6
2020-04-21 10:00, 1.16,6.4
2020-04-21 11:00, 1.12,5.3
2020-04-21 12:00, 0.95,5.3
2020-04-21 13:00, 1.06,5.3
2020-04-21 14:00, 0.93,5.3
2020-04-21 15:00, 1.39,10.7
2020-04-21 16:00, 0.69,5.3
2020-04-21 17:00, 0.85,3.2
2020-04-21 18:00, 0.86,3.6
2020-04-21 19:00, 1.06,4.0
2020-04-21 20:00, 2.53,10.7
2020-04-21 21:00, 1.40,4.6
2020-04-21 22:00, 1.47,5.3
2020-04-21 23:00, 2.81,10.7
2020-04-22 00:00, 2.01,5.3
2020-04-22 01:00, 2.23,5.3
2020-04-22 02:00, 2.56,6.4
2020-04-22 03:00, 2.78,6.4
2020-04-22 04:00,,
2020-04-22 05:00, 2.86,8.0
2020-04-22 06:00, 3.16,8.0
2020-04-22 07:00, 2.85,8.0
2020-04-22 08:00, 2.60,8.0
2020-04-22 09:00, 2.00,6.4
2020-04-22 10:00, 2.39,6.4
2020-04-22 11:00, 2.55,6.4
2020-04-22 12:00, 2.49,6.4
2020-04-22 13:00, 2.72,6.4
2020-04-22 14:00, 2.50,8.0
2020-04-22 15:00, 2.79,8.0
2020-04-22 16:00, 2.70,6.4
2020-04-22 17:00, 2.65,8.0
2020-04-22 18:00,,
2020-04-22 19:00, 3.44,10.7
2020-04-22 20:00, 2.96,8.0
2020-04-22 21:00, 2.70,8.0
2020-04-22 22:00, 3.12,8.0
2020-04-22 23:00, 3.31,8.0
2020-04-23 00:00, 2.73,8.0
2020-04-23 01:00, 2.67,8.0
2020-04-23 02:00, 2.67,8.0
2020-04-23 03:00, 2.93,8.0
2020-04-23 04:00, 3.05,8.0
2020-04-23 05:00, 2.69,8.0
2020-04-23 06:00, 3.03,8.0
2020-04-23 07:00, 2.75,8.0
2020-04-23 08:00, 3.04,8.0
2020-04-23 09:00, 2.75,8.0
2020-04-23 10:00, 2.55,8.0
2020-04-23 11:00, 2.93,8.0
2020-04-23 12:00, 2.54,8.0
2020-04-23 13:00, 2.35,8.0
2020-04-23 14:00, 2.32,8.0
2020-04-23 15:00, 2.15,8.0
2020-04-23 16:00, 2.37,8.0
2020-04-23 17:00, 2.50,6.4
2020-04-23 18:00, 2.85,6.4
2020-04-23 19:00, 2.50,6.4
2020-04-23 20:00, 2.57,6.4
2020-04-23 21:00, 2.21,6.4
2020-04-23 22:00, 2.18,6.4
2020-04-23 23:00, 1.77,6.4
2020-04-24 00:00, 1.90,6.4
2020-04-24 01:00, 1.86,6.4
2020-04-24 02:00, 1.49,6.4
2020-04-24 03:00, 1.58,6.4
2020-04-24 04:00, 1.29,5.3
2020-04-24 05:00, 1.15,6.4
2020-04-24 06:00, 1.15,5.3
2020-04-24 07:00, 0.99,5.3
2020-04-24 08:00, 1.12,6.4
2020-04-24 09:00, 0.91,6.4
2020-04-24 10:00, 1.08,6.4
2020-04-24 11:00, 0.97,6.4
2020-04-24 12:00, 0.97,5.3
2020-04-24 13:00, 0.85,5.3
2020-04-24 14:00, 0.92,8.0
2020-04-24 15:00, 0.92,5.3
2020-04-24 16:00, 0.86,4.6
2020-04-24 17:00, 0.84,5.3
2020-04-24 18:00, 0.91,3.6
2020-04-24 19:00, 0.98,4.0
2020-04-24 20:00, 1.00,4.6
2020-04-24 21:00, 1.09,4.6
2020-04-24 22:00, 1.17,4.6
2020-04-24 23:00, 1.33,5.3
2020-04-25 00:00, 1.33,5.3
2020-04-25 01:00, 1.43,5.3
2020-04-25 02:00, 1.18,6.4
2020-04-25 03:00, 1.37,6.4
2020-04-25 04:00, 1.41,6.4
2020-04-25 05:00, 1.38,6.4
2020-04-25 06:00, 1.07,6.4
2020-04-25 07:00, 0.91,6.4
2020-04-25 08:00, 1.35,10.7
2020-04-25 09:00,,
2020-04-25 10:00, 2.28,10.7
2020-04-25 11:00, 2.31,10.7
2020-04-25 12:00, 2.45,10.7
2020-04-25 13:00, 2.42,10.7
2020-04-25 14:00, 2.01,10.7
2020-04-25 15:00, 2.07,10.7
2020-04-25 16:00, 1.88,10.7
2020-04-25 17:00, 2.22,10.7
2020-04-25 18:00, 2.01,10.7
2020-04-25 19:00, 1.87,10.7
2020-04-25 20:00, 2.04,10.7
2020-04-25 21:00, 2.16,10.7
2020-04-25 22:00, 2.29,10.7
2020-04-25 23:00, 1.77,10.7
2020-04-26 00:00, 2.02,10.7
2020-04-26 01:00, 1.74,10.7
2020-04-26 02:00, 1.39,10.7
2020-04-26 03:00, 1.50,10.7
2020-04-26 04:00, 1.37,10.7
2020-04-26 05:00, 1.62,10.7
2020-04-26 06:00, 1.48,10.7
2020-04-26 07:00, 1.67,10.7
2020-04-26 08:00, 1.93,10.7
2020-04-26 09:00, 1.52,10.7
2020-04-26 10:00, 1.67,10.7
2020-04-26 11:00, 1.53,10.7
2020-04-26 12:00, 1.39,10.7
2020-04-26 13:00, 1.32,10.7
2020-04-26 14:00, 1.53,10.7
2020-04-26 15:00, 1.37,10.7
2020-04-26 16:00, 1.15,10.7
2020-04-26 17:00, 1.29,10.7
2020-04-26 18:00, 1.45,10.7
2020-04-26 19:00, 1.21,8.0
2020-04-26 20:00, 1.27,8.0
2020-04-26 21:00, 1.67,10.7
2020-04-26 22:00, 1.36,8.0
2020-04-26 23:00, 1.57,10.7
2020-04-27 00:00, 1.31,8.0
2020-04-27 01:00, 1.41,8.0
2020-04-27 02:00, 1.49,4.0
2020-04-27 03:00, 1.60,4.6
2020-04-27 04:00, 1.84,5.3
2020-04-27 05:00, 2.52,6.4
2020-04-27 06:00, 2.77,6.4
2020-04-27 07:00, 2.86,6.4
2020-04-27 08:00, 2.73,6.4
2020-04-27 09:00, 3.42,6.4
2020-04-27 10:00, 3.84,8.0
2020-04-27 11:00, 4.09,8.0
2020-04-27 12:00, 3.65,8.0
2020-04-27 13:00, 4.53,8.0
2020-04-27 14:00, 4.59,8.0
2020-04-27 15:00, 4.97,8.0
2020-04-27 16:00, 5.32,10.7
2020-04-27 17:00, 5.22,8.0
2020-04-27 18:00, 5.57,8.0
2020-04-27 19:00, 5.66,8.0
2020-04-27 21:00, 5.04,8.0
2020-04-27 22:00, 4.53,8.0
2020-04-27 23:00, 4.72,8.0
2020-04-28 00:00, 4.67,8.0
2020-04-28 01:00, 5.24,10.7
2020-04-28 02:00, 4.98,8.0
2020-04-28 03:00, 5.73,10.7
2020-04-28 04:00, 5.50,10.7
2020-04-28 05:00, 4.59,10.7
2020-04-28 06:00, 5.20,8.0
2020-04-28 07:00, 4.90,10.7
2020-04-28 08:00, 4.26,8.0
2020-04-28 09:00, 4.61,10.7
2020-04-28 10:00, 3.33,8.0
2020-04-28 11:00, 4.03,8.0
2020-04-28 12:00, 4.07,8.0
2020-04-28 13:00, 3.86,8.0
2020-04-28 14:00, 4.30,10.7
2020-04-28 15:00, 3.71,10.7
2020-04-28 16:00, 3.31,8.0
2020-04-28 17:00, 3.33,10.7
2020-04-28 18:00, 2.79,8.0
2020-04-28 19:00, 2.73,8.0
2020-04-28 20:00, 2.29,8.0
2020-04-28 21:00, 2.44,8.0
2020-04-28 22:00, 2.11,8.0
2020-04-28 23:00,,
2020-04-29 00:00, 1.68,8.0
2020-04-29 01:00, 2.03,8.0
2020-04-29 02:00, 2.02,6.4
2020-04-29 03:00, 2.30,6.4
2020-04-29 04:00, 1.92,8.0
2020-04-29 05:00, 2.14,8.0
2020-04-29 06:00, 1.97,6.4
2020-04-29 07:00, 1.99,8.0
2020-04-29 08:00, 1.56,6.4
2020-04-29 09:00, 1.60,6.4
2020-04-29 10:00, 1.60,6.4
2020-04-29 11:00, 1.61,6.4
2020-04-29 12:00, 1.76,6.4
2020-04-29 13:00, 1.50,6.4
2020-04-29 14:00, 1.53,5.3
2020-04-29 15:00, 1.51,5.3
2020-04-29 16:00, 1.41,6.4
2020-04-29 17:00, 1.54,6.4
2020-04-29 18:00,,
2020-04-29 19:00, 1.42,6.4
2020-04-29 20:00, 1.92,10.7
2020-04-29 21:00, 1.75,10.7
2020-04-29 22:00, 1.09,5.3
2020-04-29 23:00,,
2020-04-30 00:00, 1.42,10.7
2020-04-30 01:00, 0.60,5.3
2020-04-30 02:00, 1.15,10.7
2020-04-30 03:00, 0.64,5.3
2020-04-30 04:00, 1.58,10.7
2020-04-30 05:00, 1.52,10.7
2020-04-30 06:00, 1.75,10.7
2020-04-30 07:00, 1.83,10.7
2020-04-30 08:00, 1.59,10.7
2020-04-30 09:00,,
2020-04-30 10:00, 1.48,10.7
2020-04-30 11:00,,
2020-04-30 12:00, 0.78,5.3
2020-04-30 13:00, 0.67,3.2
2020-04-30 14:00, 0.92,5.3
2020-04-30 15:00, 1.08,4.6
2020-04-30 16:00, 1.12,4.6
2020-04-30 17:00, 1.22,5.3
2020-04-30 18:00, 1.30,5.3
2020-04-30 19:00, 2.30,10.7
2020-04-30 20:00, 1.33,5.3
2020-04-30 21:00, 2.25,10.7
2020-04-30 22:00, 1.33,5.3
2020-04-30 23:00, 1.58,5.3
2020-05-01 00:00, 1.71,5.3
2020-05-01 01:00, 1.50,5.3
2020-05-01 02:00, 1.64,6.4
2020-05-01 03:00, 1.74,6.4
2020-05-01 04:00, 1.93,6.4
2020-05-01 05:00, 1.83,5.3
2020-05-01 06:00, 1.75,5.3
2020-05-01 07:00, 1.74,5.3
2020-05-01 08:00, 1.94,6.4
2020-05-01 09:00, 2.05,6.4
2020-05-01 10:00, 2.29,6.4
2020-05-01 11:00, 1.98,6.4
2020-05-01 12:00, 2.04,6.4
2020-05-01 13:00, 2.09,6.4
2020-05-01 14:00, 1.97,6.4
2020-05-01 15:00, 1.96,6.4
2020-05-01 16:00, 2.59,6.4
2020-05-01 17:00, 2.55,6.4
2020-05-01 18:00, 2.49,6.4
2020-05-01 19:00, 2.61,8.0
2020-05-01 20:00, 3.03,6.4
2020-05-01 21:00, 3.73,8.0
2020-05-01 22:00, 2.75,8.0
2020-05-01 23:00, 2.94,8.0
2020-05-02 00:00, 2.89,8.0
2020-05-02 01:00, 3.03,8.0
2020-05-02 02:00, 3.06,10.7
2020-05-02 03:00, 3.32,10.7
2020-05-02 04:00, 3.13,10.7
2020-05-02 05:00, 3.02,10.7
2020-05-02 06:00, 2.96,8.0
2020-05-02 07:00, 2.84,10.7
2020-05-02 08:00, 3.12,10.7
2020-05-02 09:00,,
2020-05-02 10:00,,
2020-05-02 11:00, 3.37,10.7
2020-05-02 12:00, 2.95,10.7
2020-05-02 13:00, 3.18,10.7
2020-05-02 14:00, 3.41,10.7
2020-05-02 15:00, 2.57,10.7
2020-05-02 16:00, 2.69,10.7
2020-05-02 17:00, 1.29,5.3
2020-05-02 18:00, 1.14,5.3
2020-05-02 19:00, 1.14,4.6
2020-05-02 20:00, 2.83,10.7
2020-05-02 21:00, 2.92,10.7
2020-05-02 22:00, 2.70,10.7
2020-05-02 23:00, 2.57,10.7
2020-05-03 00:00, 2.34,10.7
2020-05-03 01:00, 3.01,10.7
2020-05-03 02:00, 2.79,10.7
2020-05-03 03:00, 2.54,10.7
2020-05-03 04:00, 2.39,10.7
2020-05-03 05:00, 2.07,10.7
2020-05-03 06:00, 2.05,10.7
2020-05-03 07:00, 2.01,10.7
2020-05-03 08:00, 1.89,10.7
2020-05-03 09:00, 2.08,10.7
2020-05-03 10:00, 1.92,10.7
2020-05-03 11:00, 1.61,10.7
2020-05-03 12:00, 1.83,10.7
2020-05-03 13:00, 1.76,10.7
2020-05-03 14:00,,
2020-05-03 15:00, 1.76,10.7
2020-05-03 16:00,,
2020-05-03 17:00, 1.75,10.7
2020-05-03 18:00, 1.63,10.7
2020-05-03 19:00, 1.80,10.7
2020-05-03 20:00,,
2020-05-03 21:00,,
2020-05-03 22:00,,
2020-05-03 23:00,,
2020-05-04 00:00,,
2020-05-04 01:00, 0.95,4.6
2020-05-04 02:00, 0.93,4.6
2020-05-04 03:00, 0.92,5.3
2020-05-04 04:00, 0.86,5.3
2020-05-04 05:00, 0.80,5.3
2020-05-04 06:00, 0.88,5.3
2020-05-04 07:00,,
2020-05-04 08:00, 0.87,5.3
2020-05-04 09:00, 0.81,5.3
2020-05-04 10:00, 0.79,4.6
2020-05-04 11:00, 0.85,4.6
2020-05-04 12:00, 0.72,4.6
2020-05-04 13:00, 0.70,5.3
2020-05-04 14:00, 0.67,4.6
2020-05-04 15:00, 0.94,8.0
2020-05-04 16:00, 0.87,8.0
2020-05-04 17:00, 0.89,8.0
2020-05-04 18:00, 0.91,8.0
2020-05-04 19:00, 0.92,8.0
2020-05-04 20:00, 0.94,8.0
2020-05-04 21:00, 0.88,10.7
2020-05-04 22:00, 1.05,10.7
2020-05-04 23:00, 0.74,5.3
2020-05-05 00:00, 0.91,8.0
2020-05-05 01:00, 0.58,4.6
2020-05-05 02:00, 0.51,2.9
2020-05-05 03:00, 0.97,8.0
2020-05-05 04:00, 1.06,8.0
2020-05-05 05:00, 0.98,3.6
2020-05-05 06:00, 1.41,8.0
2020-05-05 07:00, 1.10,4.6
2020-05-05 08:00, 1.14,4.6
2020-05-05 09:00, 1.07,4.6
2020-05-05 10:00, 0.96,4.6
2020-05-05 11:00, 1.15,4.0
2020-05-05 12:00, 1.43,4.6
2020-05-05 13:00, 1.55,5.3
2020-05-05 14:00, 1.45,5.3
2020-05-05 15:00, 1.72,5.3
2020-05-05 16:00, 1.53,5.3
2020-05-05 17:00, 1.21,5.3
2020-05-05 18:00, 1.14,5.3
2020-05-05 19:00, 1.16,4.6
2020-05-05 20:00, 1.01,5.3
2020-05-05 21:00, 0.84,4.6
2020-05-05 22:00, 0.86,4.6
2020-05-05 23:00, 0.91,5.3
2020-05-06 00:00, 0.81,5.3
2020-05-06 01:00, 0.89,5.3
2020-05-06 02:00, 0.76,4.6
2020-05-06 03:00, 0.69,4.6
2020-05-06 04:00, 0.93,8.0
2020-05-06 05:00, 0.69,3.6
2020-05-06 06:00, 0.67,4.0
2020-05-06 07:00, 0.88,8.0
2020-05-06 08:00, 1.05,8.0
2020-05-06 09:00, 1.01,8.0
2020-05-06 10:00, 0.90,8.0
2020-05-06 11:00, 0.78,4.6
2020-05-06 12:00, 0.89,5.3
2020-05-06 13:00, 0.66,5.3
2020-05-06 14:00, 0.79,5.3
2020-05-06 15:00, 0.59,5.3
2020-05-06 16:00, 0.49,5.3
2020-05-06 17:00, 0.54,8.0
2020-05-06 18:00, 0.61,8.0